Latest Coastal Weather Observations for Arlington Reef

IDQ60701

Issued at 5:31 pm EST Wednesday 1 June 2016 (issued every 10 minutes, with the page automatically refreshed every 10 minutes)

About coastal observations | Map of coastal stations | Coastal observations for QLD | Marine services | Other Formats
Station Details ID: 200879 Name: ARLINGTON REEF Lat: -16.72 Lon: 146.11 Height: 0.0 m
Data from the previous 72 hours. | See also: Recent months at Arlington Reef
Date/Time
EST
Temp

°C
Wind Pressure Rain
since 9am
mm
Weather Cloud Vis
km
Sea
Height
m
Swell
Dir
 
Speed
knots
Gust
knots
hPa Trend Height
m
Period
s
Dir
01/05:30pm - SE 15 18 1015.1 - - - - - - - - -
01/05:00pm - SE 14 17 1015.1 - - - - - - - - -
01/04:30pm - SE 15 17 1014.9 - - - - - - - - -
01/04:00pm - SE 15 17 1014.9 - - - - - - - - -
01/03:30pm - SE 14 16 1014.8 - - - - - - - - -
01/03:00pm - SE 14 15 1014.8 - - - - - - - - -
01/02:30pm - SE 13 16 1014.9 - - - - - - - - -
01/02:00pm - SE 14 16 1015.1 - - - - - - - - -
01/01:30pm - SE 14 16 1015.6 - - - - - - - - -
01/01:00pm - SE 15 17 1015.9 - - - - - - - - -
01/12:30pm - ESE 15 17 1016.4 - - - - - - - - -
01/12:00pm - SE 15 18 1016.7 - - - - - - - - -
01/11:30am - SE 17 19 1016.8 - - - - - - - - -
01/11:00am - SE 16 19 1017.1 - - - - - - - - -
01/10:30am - SE 16 19 1017.4 - - - - - - - - -
01/10:00am - ESE 17 20 1017.5 - - - - - - - - -
01/09:30am - SE 18 21 1017.3 - - - - - - - - -
01/09:00am - ESE 17 20 1017.5 - - - - - - - - -
01/08:30am - SE 17 21 1017.3 - - - - - - - - -
01/08:00am - SE 18 21 1016.9 - - - - - - - - -
01/07:30am - ESE 18 22 1016.6 - - - - - - - - -
01/07:00am - SE 16 18 1016.4 - - - - - - - - -
01/06:30am - ESE 17 20 1016.1 - - - - - - - - -
01/06:00am - SE 17 19 1015.7 - - - - - - - - -
01/05:30am - SE 17 20 1015.4 - - - - - - - - -
01/05:00am - SE 17 19 1015.2 - - - - - - - - -
01/04:30am - ESE 18 21 1015.2 - - - - - - - - -
01/04:00am - SE 18 23 1015.2 - - - - - - - - -
01/03:30am - SE 19 22 1015.1 - - - - - - - - -
01/03:00am - ESE 19 22 1015.3 - - - - - - - - -
01/02:30am - SE 18 21 1015.8 - - - - - - - - -
01/02:00am - SE 17 20 1016.1 - - - - - - - - -
01/01:30am - ESE 19 23 1016.1 - - - - - - - - -
01/01:00am - SE 19 23 1016.6 - - - - - - - - -
01/12:30am - SE 20 23 1016.7 - - - - - - - - -
01/12:00am - ESE 20 24 1016.7 - - - - - - - - -
 
Date/Time
EST
Temp

°C
Wind Pressure Rain
since 9am
mm
Weather Cloud Vis
km
Sea
Height
m
Swell
Dir
 
Speed
knots
Gust
knots
hPa Trend Height
m
Period
s
Dir
31/11:30pm - ESE 20 24 1017.2 - - - - - - - - -
31/11:00pm - ESE 21 25 1017.5 - - - - - - - - -
31/10:30pm - SE 20 24 1017.7 - - - - - - - - -
31/10:00pm - SE 21 24 1017.8 - - - - - - - - -
31/09:30pm - SE 19 23 1017.9 - - - - - - - - -
31/09:00pm - SE 21 25 1017.8 - - - - - - - - -
31/08:30pm - SE 22 25 1017.6 - - - - - - - - -
31/08:00pm - SE 23 27 1017.4 - - - - - - - - -
31/07:30pm - SE 23 27 1017.0 - - - - - - - - -
31/07:00pm - SE 22 25 1016.7 - - - - - - - - -
31/06:30pm - ESE 21 25 1016.5 - - - - - - - - -
31/06:00pm - SE 20 24 1016.4 - - - - - - - - -
31/05:30pm - SE 20 23 1016.2 - - - - - - - - -
31/05:00pm - SE 19 23 1016.1 - - - - - - - - -
31/04:30pm - SE 19 23 1015.8 - - - - - - - - -
31/04:00pm - SE 19 22 1015.6 - - - - - - - - -
31/03:30pm - ESE 19 22 1015.6 - - - - - - - - -
31/03:00pm - ESE 18 22 1015.7 - - - - - - - - -
31/02:30pm - SE 19 23 1015.8 - - - - - - - - -
31/02:00pm - SE 19 22 1015.9 - - - - - - - - -
31/01:30pm - SE 19 23 1016.2 - - - - - - - - -
31/01:00pm - SE 19 22 1016.7 - - - - - - - - -
31/12:30pm - ESE 20 24 1017.1 - - - - - - - - -
31/12:00pm - ESE 19 21 1017.6 - - - - - - - - -
31/11:30am - ESE 19 22 1017.9 - - - - - - - - -
31/11:00am - ESE 21 24 1017.8 - - - - - - - - -
31/10:30am - ESE 21 25 1018.1 - - - - - - - - -
31/10:00am - ESE 22 25 1018.2 - - - - - - - - -
31/09:30am - ESE 21 24 1018.3 - - - - - - - - -
31/09:00am - ESE 20 25 1018.2 - - - - - - - - -
31/08:30am - ESE 21 25 1017.8 - - - - - - - - -
31/08:00am - SE 20 25 1017.5 - - - - - - - - -
31/07:30am - SE 20 24 1017.1 - - - - - - - - -
31/07:00am - ESE 21 25 1016.8 - - - - - - - - -
31/06:30am - ESE 20 24 1016.5 - - - - - - - - -
31/06:00am - ESE 20 24 1016.2 - - - - - - - - -
31/05:30am - ESE 20 23 1016.1 - - - - - - - - -
31/05:00am - SE 21 25 1015.9 - - - - - - - - -
31/04:30am - ESE 20 24 1015.9 - - - - - - - - -
31/04:00am - SE 19 23 1016.0 - - - - - - - - -
31/03:30am - ESE 18 22 1016.2 - - - - - - - - -
31/03:00am - ESE 18 23 1016.2 - - - - - - - - -
31/02:30am - ESE 18 21 1016.3 - - - - - - - - -
31/02:00am - ESE 19 22 1016.3 - - - - - - - - -
31/01:30am - ESE 20 23 1016.5 - - - - - - - - -
31/01:00am - ESE 19 22 1016.8 - - - - - - - - -
31/12:30am - ESE 18 21 1016.9 - - - - - - - - -
31/12:00am - ESE 20 22 1017.0 - - - - - - - - -
 
Date/Time
EST
Temp

°C
Wind Pressure Rain
since 9am
mm
Weather Cloud Vis
km
Sea
Height
m
Swell
Dir
 
Speed
knots
Gust
knots
hPa Trend Height
m
Period
s
Dir
30/11:30pm - ESE 19 22 1017.2 - - - - - - - - -
30/11:00pm - SE 19 22 1017.3 - - - - - - - - -
30/10:30pm - ESE 19 22 1017.2 - - - - - - - - -
30/10:00pm - ESE 19 23 1017.3 - - - - - - - - -
30/09:30pm - SE 18 21 1017.4 - - - - - - - - -
30/09:00pm - SE 19 22 1017.3 - - - - - - - - -
30/08:30pm - SSE 16 19 1017.4 - - - - - - - - -
30/08:00pm - SE 17 20 1017.1 - - - - - - - - -
30/07:30pm - SE 18 20 1016.7 - - - - - - - - -
30/07:00pm - SE 19 22 1016.5 - - - - - - - - -
30/06:42pm - ESE 13 24 1016.3 - - - - - - - - -
30/06:30pm - S 7 18 1016.3 - - - - - - - - -
30/06:00pm - SSE 16 20 1016.1 - - - - - - - - -
30/05:30pm - SSE 17 21 1015.8 - - - - - - - - -
30/05:00pm - SSE 17 20 1015.6 - - - - - - - - -
30/04:30pm - SSE 17 19 1015.5 - - - - - - - - -
30/04:00pm - SSE 17 21 1015.4 - - - - - - - - -
30/03:30pm - SSE 15 18 1015.3 - - - - - - - - -
30/03:00pm - SSE 15 18 1015.5 - - - - - - - - -
30/02:30pm - SSE 16 18 1015.5 - - - - - - - - -
30/02:00pm - SSE 17 19 1015.6 - - - - - - - - -
30/01:30pm - SSE 16 18 1015.8 - - - - - - - - -
30/01:00pm - SSE 15 19 1016.2 - - - - - - - - -
30/12:30pm - S 15 16 1016.7 - - - - - - - - -
30/12:00pm - S 16 19 1017.3 - - - - - - - - -
30/11:30am - S 16 18 1017.6 - - - - - - - - -
30/11:00am - S 15 19 1017.8 - - - - - - - - -
30/10:30am - S 18 22 1017.7 - - - - - - - - -
30/10:00am - S 17 20 1018.1 - - - - - - - - -
30/09:30am - SE 10 12 1018.3 - - - - - - - - -
30/09:00am - SE 9 11 1017.9 - - - - - - - - -
30/08:30am - ESE 10 11 1017.6 - - - - - - - - -
30/08:00am - ESE 9 10 1017.2 - - - - - - - - -
30/07:30am - ESE 8 10 1017.0 - - - - - - - - -
30/07:00am - ESE 8 10 1016.8 - - - - - - - - -
30/06:30am - ESE 8 10 1016.5 - - - - - - - - -
30/06:00am - E 9 10 1016.2 - - - - - - - - -
30/05:30am - ESE 9 12 1016.0 - - - - - - - - -
30/05:00am - ESE 11 13 1015.9 - - - - - - - - -
30/04:30am - SE 9 11 1015.7 - - - - - - - - -
30/04:00am - SE 10 11 1015.6 - - - - - - - - -
30/03:30am - SE 10 12 1015.8 - - - - - - - - -
30/03:00am - SE 10 12 1015.8 - - - - - - - - -
30/02:30am - SE 10 12 1015.8 - - - - - - - - -
30/02:00am - ESE 10 12 1016.0 - - - - - - - - -
30/01:30am - SE 9 11 1016.2 - - - - - - - - -
30/01:00am - SE 9 11 1016.5 - - - - - - - - -
30/12:30am - ESE 9 11 1016.4 - - - - - - - - -
30/12:00am - ESE 9 10 1016.3 - - - - - - - - -
 
Date/Time
EST
Temp

°C
Wind Pressure Rain
since 9am
mm
Weather Cloud Vis
km
Sea
Height
m
Swell
Dir
 
Speed
knots
Gust
knots
hPa Trend Height
m
Period
s
Dir
29/11:30pm - SE 10 12 1016.6 - - - - - - - - -
29/11:00pm - SE 11 13 1016.7 - - - - - - - - -
29/10:30pm - SE 9 11 1016.9 - - - - - - - - -
29/10:00pm - SE 9 10 1016.9 - - - - - - - - -
29/09:30pm - ESE 8 10 1017.0 - - - - - - - - -
29/09:00pm - ESE 9 10 1016.6 - - - - - - - - -
29/08:30pm - ESE 9 10 1016.4 - - - - - - - - -
29/08:00pm - ESE 8 9 1016.0 - - - - - - - - -
29/07:30pm - E 10 11 1015.6 - - - - - - - - -
29/07:00pm - ESE 6 8 1015.4 - - - - - - - - -
29/06:30pm - E 8 9 1015.3 - - - - - - - - -
29/06:00pm - SE 10 12 1015.1 - - - - - - - - -

Other Formats:

Comma delimited format used in spreadsheet applications
http://www.bom.gov.au/fwo/IDQ60701/IDQ60701.94284.axf

JavaScript Object Notation format (JSON) in row-major order
http://www.bom.gov.au/fwo/IDQ60701/IDQ60701.94284.json